Вернуться в каталог

STARLINK-35847

АктивенСвязьVLEO
NORAD 66621·PAYLOAD·🇺🇸 United States

Запущен Nov 23, 2025 с Vandenberg Space Force Base

Loading…

Ближайшие Пролёты (ближайшие 24 часа)

TLE

СвежийSource: CelesTrak SupGP

Эпоха: Sep 14, 2026, 14:11 UTC

1 66621C 25271E   26257.59145833 -.00017517  00000+0 -51779-3 0  2579
2 66621  53.1581 341.4495 0001223  81.6070 263.4175 15.34385032    19

Отслеживайте STARLINK-35847 в реальном времени с AllMySat

Download on the App Store